Regional Weather Roundup
Issued by NWS Kansas City/Pleasant Hill, MO

Home | Current Version | Previous Version | Graphics & Text | Print | Product List | Glossary Off
Versions: 1 2 3 4 5 6 7 8 9 10 11 12 13 14 15 16 17 18 19 20 21 22 23 24 25 26 27

000
ASUS43 KEAX 170910
RWREAX

WEATHER ROUNDUP FOR EASTERN KANSAS AND NORTHWEST MISSOURI
NATIONAL WEATHER SERVICE KANSAS CITY/PLEASANT HILL MO
300 AM CST TUE JAN 17 2017

KSZ040-057-103>105-MOZ028-029-037-043-171000-
...KANSAS CITY METROPOLITAN AREA...

CITY           SKY/WX    TMP DP  RH WIND       PRES   REMARKS
K.C. INTL      CLOUDY    34  33  96 NW9       29.99R WCI  27
K.C. DOWNTOWN  CLOUDY    36  34  92 W5        30.00R WCI  32
LEES SUMMIT    CLOUDY    35  32  88 MISG      29.99R
OLATHE - IXD   CLOUDY    35  33  92 W12       30.00R WCI  27
OLATHE - OJC   CLOUDY    34  34 100 NW10G16   30.00R WCI  26
LAWRENCE       CLOUDY    35  34  96 W8        30.03R FOG     WCI  29

$$

MOZ001>008-011>017-020>025-030>033-038>040-044>046-053-054-171000-
...NORTHERN AND CENTRAL MISSOURI...

CITY           SKY/WX    TMP DP  RH WIND       PRES   REMARKS
ST. JOSEPH     CLOUDY    34  34 100 NW8       30.01R WCI  27
MOSBY          CLOUDY    36  34  93 W5        29.99S WCI  32
WARRENSBURG    CLOUDY    36  34  93 W7        29.99R WCI  30
WHITEMAN AFB   CLOUDY    38  38 100 W8        29.97R WCI  32
CLINTON        CLOUDY    39  37  93 W12       30.00R WCI  32
SEDALIA        CLOUDY    40  38  93 W12       29.98R WCI  33
WARSAW         NOT AVBL
CHILLICOTHE      N/A     36  35  96 W8        29.97R WCI  30
KIRKSVILLE     CLOUDY    39  39 100 W7        29.91R FOG     WCI  34

$$

MOZ041-047>049-056>058-063>065-088>090-097-171000-
...EASTERN AND SOUTHERN MISSOURI...

CITY           SKY/WX    TMP DP  RH WIND       PRES   REMARKS
ST. LOUIS INTL CLOUDY    47  40  76 W18       29.92R
SPIRIT OF STL  CLOUDY    45  40  82 W18       29.94R
COLUMBIA       CLOUDY    41  38  89 W8        29.95R
JEFFERSON CITY CLOUDY    43  37  79 W13       29.98R
ROLLA          CLOUDY    40  37  89 W10       29.96R WCI  33
OSAGE BEACH    CLOUDY    42  37  82 W7        29.99R
SPRINGFIELD    CLOUDY    40  35  83 W10       30.00R WCI  33
BRANSON        CLOUDY    39  36  87 W6        30.02S WCI  35
JOPLIN         CLOUDY    39  37  92 MISG      30.03S
WEST PLAINS    MOCLDY    39  37  92 W5        30.00R

$$

IAZ060-094-KSZ022-034>040-054-083-096-NEZ052-066-093-171000-
...KANSAS...SOUTHEAST NEBRASKA AND IOWA...

CITY           SKY/WX    TMP DP  RH WIND       PRES   REMARKS
TOPEKA         CLOUDY    35  31  85 W9        30.02S WCI  28
MANHATTAN      CLOUDY    35  33  92 CALM      30.04S
EMPORIA        CLOUDY    34  33  96 NW10      30.03R FOG     WCI  26
CHANUTE        CLOUDY    37  34  89 NW7       30.04R WCI  32
WICHITA        DRIZZLE   36  34  92 NW10      30.07R WCI  28
OMAHA          CLOUDY    32  28  85 NW12      30.01R WCI  23
LINCOLN        CLOUDY    31  27  85 NW8       30.04R WCI  23
FALLS CITY     CLOUDY    33  32  96 W12       30.00R FOG     WCI  24
LAMONI         CLOUDY    33  32  96 W10       29.92R WCI  25
DES MOINES     DRIZZLE   34  33  96 NW10      29.92R FOG     WCI  26

$$





USA.gov is the U.S. government's official web portal to all federal, state and local government web resources and services.